STARLINK-5913, 55937

Orbit data source: Space-Track

STARLINK-5913, 55937 is a payload satellite owned by SpaceX/Seattle (US) in LEO that was launched on Fri, 17 Mar 2023 UTC via an FALCON 9 launch vehicle from the Air Force Western Test Range (AFWTR). Payload-class satellites include a variety of spacecraft equipped with specific instruments for various scientific and technological missions. These include communications satellites like Starlink; space stations such as the ISS; scientific satellites like the Hubble; Earth observation satellites from companies like Planet Labs, Umbra, and HawkEye 360; GPS; miniature CubeSats for education and research; and military/defense satellites.

Loading next visibility...
Identifier
55937, 2023-037Z
Orbit
LEO
Country
Flag of USUS
Related business
Manufacturer
SpaceX/Seattle
Mission
Operational Commercial Communications
Bus & Motor
STARLINK, Unknown motor
Mass
305 kg wet, ~290 kg dry
Launch date (UTC)
2023-03-17 (3 years ago)
Launch vehicle
FALCON 9
Launch site
Air Force Western Test Range (AFWTR)
Object type
Payload
Rocket body
Debris
Shape & HBR
Box + 1 Pan, 10.1 m
Radar Cross Section
11.087 m², Large (>1 m²)

Expand to show TLE details & history
Last TLE update: 8 hours ago

TLE from 8 hours ago
0 STARLINK-5913
1 55937U 23037Z   25349.86959604  .00000660  00000-0  63083-4 0  9990
2 55937  69.9992 135.8415 0003060 270.5797  89.5012 14.98322875151425
Epoch: 2025-12-15T20:52Z
TLE epoch observation values (Epoch: 2025-12-15T20:52:13.097Z)
Latitude
0.00001°
Longitude
98.02496°
Altitude
574.484 km
Speed
7.574 km/s
True Right ascension
09h 03m 21s
True Declination
0° 00' 00"
Sunlit
Object was in full shadow at epoch
Visualization orbit readout
Latitude
Unknown
Longitude
Unknown
Altitude
Unknown
Speed
Unknown
Apparent Right ascension
Unknown
Apparent Declination
Unknown
Sunlit
N/A
Visualization observer readout
Local Sidereal Time
03:06:49
Azimuth
Unknown
Elevation
Unknown
Doppler factor
Unknown
Orbital elements
Apogee altitude
572.152 km
Perigee altitude
567.9 km
Semi-major axis
6,948.163 km
Eccentricity
0.00031
Inclination
69.9992°
RAAN
135.8415°
Arg. of periapsis
270.5797°
True anomaly
89.53626°
Mean anomaly
89.5012°
Eccentric anomaly
89.51873°
Mean motion
3.74747 °/min
Orbital period
96.06 mins
BSTAR
0.000063083
Loading maneuver chart data...
Computing Atmospheric mass density...
Loading historical data...
Loading historical data...
Loading historical data...
Loading historical data...
Loading historical data...
Loading historical data...
Loading historical data...

Documentation

Showing up to 5 results
|